Location: *
(49.3500°N, 12.6000°E)
Time: 17:20:27
(UTC+00:00)

Cosmos 1076 Rocket - Pass Details

Date: 18 October 2019
Orbit: 589 x 613 km, 82.5° (Epoch: 12 November)

Event Time Altitude Azimuth Distance (km) Brightness Sun altitude
Rises 18:18:21 0° 349° (N) 2,892 7.3 -20.9°
Reaches altitude 10° 18:20:35 10° 349° (NNW) 1,981 6.4 -21.3°
Maximum altitude 18:24:58 83° 262° (W) 622 3.5 -22.0°
Enters shadow 18:27:01 31° 177° (S) 1,074 4.6 -22.3°
